FW9155 Weather Reports


Display with metric or nautical units.
time (UTC)temp
F
wind
direction
speed
MPH
gust
MPH
rain 1hr
in
rain 24hr
in
rain mn
in
humidity
%
barometer
mb
20260510132255 56 70 2.0 6.0 0.01 0.01 0.01 68 1021.8
20260510131733 57 62 3.0 12.0 0.00 0.00 0.00 66 1021.6
20260510131648 57 59 4.0 14.0 0.00 0.00 0.00 65 1021.6
20260510130657 57 5 5.0 14.0 0.00 0.00 0.00 65 1021.7
20260510130158 58 41 6.0 15.0 0.00 0.00 0.00 64 1021.5
20260510125632 58 23 6.0 15.0 0.00 0.00 0.00 63 1021.2
20260510125107 59 59 7.0 15.0 0.00 0.00 0.00 62 1021.0
20260510124537 59 38 7.0 15.0 0.00 0.00 0.00 61 1020.9
20260510124038 59 32 5.0 14.0 0.00 0.00 0.00 61 1020.5
20260510123533 59 53 5.0 15.0 0.00 0.00 0.00 62 1020.3
20260510123030 59 65 6.0 15.0 0.00 0.00 0.00 61 1019.9
20260510122527 58 55 7.0 16.0 0.00 0.00 0.00 62 1019.5
20260510122002 58 54 7.0 18.0 0.00 0.00 0.00 63 1019.3
20260510121438 58 34 8.0 18.0 0.00 0.00 0.00 64 1019.0
20260510120906 58 55 9.0 18.0 0.00 0.00 0.00 64 1018.9
20260510120404 58 40 9.0 18.0 0.00 0.00 0.00 64 1018.7
20260510115902 58 54 8.0 17.0 0.00 0.00 0.00 64 1018.5
20260510115349 58 57 9.0 16.0 0.00 0.00 0.00 65 1018.3
20260510114852 58 57 9.0 17.0 0.00 0.00 0.00 65 1018.3
20260510114323 58 53 9.0 17.0 0.00 0.00 0.00 66 1017.9
20260510113820 58 33 9.0 17.0 0.00 0.00 0.00 67 1017.5
20260510113520 58 32 9.0 17.0 0.00 0.00 0.00 68 1017.4
20260510112737 58 40 8.0 17.0 0.00 0.00 0.00 69 1017.2
20260510112202 58 54 8.0 16.0 0.00 0.00 0.00 69 1017.0
20260510111636 59 355 9.0 16.0 0.00 0.00 0.00 69 1016.9
20260510111107 59 31 8.0 16.0 0.00 0.00 0.00 69 1016.9
20260510110603 59 5 7.0 16.0 0.00 0.00 0.00 68 1016.9
20260510110038 59 15 6.0 13.0 0.00 0.00 0.00 68 1016.9
20260510105535 59 24 6.0 13.0 0.00 0.00 0.00 68 1017.1
20260510105033 60 32 7.0 13.0 0.00 0.00 0.00 68 1016.9
20260510104727 60 48 8.0 15.0 0.00 0.00 0.00 67 1016.8
20260510104003 60 22 8.0 15.0 0.00 0.00 0.00 67 1016.7
20260510103459 60 46 8.0 16.0 0.00 0.00 0.00 67 1016.7
20260510102957 60 51 8.0 16.0 0.00 0.00 0.00 67 1016.6
20260510102434 60 15 7.0 16.0 0.00 0.00 0.00 67 1016.5
20260510101926 60 53 6.0 16.0 0.00 0.00 0.00 68 1016.5
20260510101640 60 53 6.0 13.0 0.00 0.00 0.00 68 1016.4
20260510100919 60 54 7.0 13.0 0.00 0.00 0.00 67 1016.1
20260510100412 60 55 8.0 14.0 0.00 0.00 0.00 68 1016.0
20260510100132 60 23 9.0 16.0 0.00 0.00 0.00 68 1016.0
20260510095612 60 43 8.0 16.0 0.00 0.00 0.00 68 1016.0
20260510095102 60 14 7.0 16.0 0.00 0.00 0.00 68 1015.8
20260510094338 60 61 9.0 18.0 0.00 0.00 0.00 67 1015.6
20260510093809 60 5 9.0 18.0 0.00 0.00 0.00 67 1015.5
20260510093304 60 51 8.0 15.0 0.00 0.00 0.00 67 1015.5
20260510092740 60 28 8.0 17.0 0.00 0.00 0.00 67 1015.5
20260510092214 60 46 8.0 17.0 0.00 0.00 0.00 67 1015.5
20260510091650 61 49 7.0 13.0 0.00 0.00 0.00 67 1015.4
20260510091124 61 52 6.0 15.0 0.00 0.00 0.00 67 1015.3
20260510090847 61 14 7.0 15.0 0.00 0.00 0.00 67 1015.4
20260510090118 61 12 9.0 16.0 0.00 0.00 0.00 66 1015.4
20260510085549 62 40 8.0 15.0 0.00 0.00 0.00 66 1015.3
20260510085314 61 338 7.0 15.0 0.00 0.00 0.00 67 1015.4
20260510084519 61 49 7.0 15.0 0.00 0.00 0.00 67 1015.4
20260510084015 61 26 6.0 15.0 0.00 0.00 0.00 68 1015.4
20260510083719 61 55 5.0 13.0 0.00 0.00 0.00 68 1015.4
20260510082924 62 32 4.0 13.0 0.00 0.00 0.00 67 1015.4
20260510082356 62 351 5.0 13.0 0.00 0.00 0.00 67 1015.4
20260510081851 63 64 4.0 12.0 0.00 0.00 0.00 66 1015.4
20260510081352 63 53 3.0 10.0 0.00 0.00 0.00 65 1015.3
20260510081043 64 35 3.0 10.0 0.00 0.00 0.00 64 1015.1
20260510080323 65 74 4.0 10.0 0.00 0.00 0.00 64 1015.1
20260510080026 65 53 4.0 9.0 0.00 0.00 0.00 63 1014.8
20260510075254 65 40 2.0 8.0 0.00 0.00 0.00 63 1014.6
20260510074725 65 71 2.0 5.0 0.00 0.00 0.00 62 1014.7
20260510074223 65 40 2.0 6.0 0.00 0.00 0.00 62 1014.7
20260510073721 65 68 2.0 6.0 0.00 0.00 0.00 62 1014.6
20260510073411 65 66 2.0 9.0 0.00 0.00 0.00 62 1014.5
20260510072630 65 65 3.0 9.0 0.00 0.00 0.00 62 1014.4
20260510072107 65 62 3.0 8.0 0.00 0.00 0.00 62 1014.4
20260510071548 65 74 3.0 9.0 0.00 0.00 0.00 62 1014.2
20260510071536 65 55 3.0 9.0 0.00 0.00 0.00 62 1014.1
20260510070529 66 65 3.0 7.0 0.00 0.00 0.00 61 1014.2
20260510070030 66 69 4.0 10.0 0.00 0.00 0.00 61 1014.2
20260510065733 66 75 5.0 13.0 0.00 0.00 0.00 60 1014.2
20260510065012 67 79 6.0 13.0 0.00 0.00 0.00 60 1014.2
20260510064511 67 82 7.0 13.0 0.00 0.00 0.00 60 1014.1
20260510064226 67 82 8.0 13.0 0.00 0.00 0.00 60 1014.1
20260510063508 67 59 8.0 16.0 0.00 0.00 0.00 59 1014.0
20260510062946 67 65 8.0 16.0 0.00 0.00 0.00 59 1014.0
20260510062422 67 65 8.0 16.0 0.00 0.00 0.00 60 1014.0
20260510061902 67 84 7.0 16.0 0.00 0.00 0.00 60 1013.8
20260510061344 67 58 6.0 12.0 0.00 0.00 0.00 61 1013.7
20260510060846 67 61 6.0 11.0 0.00 0.00 0.00 62 1013.7
20260510060544 67 69 5.0 10.0 0.00 0.00 0.00 62 1013.7
20260510055821 67 59 4.0 10.0 0.00 0.00 0.00 62 1013.5
20260510055516 67 79 5.0 11.0 0.00 0.00 0.00 62 1013.5
20260510054737 67 55 5.0 11.0 0.00 0.00 0.00 62 1013.3
20260510054209 67 63 3.0 10.0 0.00 0.00 0.00 61 1013.4
20260510053710 67 54 3.0 10.0 0.00 0.00 0.00 60 1013.5
20260510053148 68 75 4.0 10.0 0.00 0.00 0.00 59 1013.3
20260510052647 68 79 4.0 8.0 0.00 0.00 0.00 59 1013.3
20260510052132 68 63 5.0 12.0 0.00 0.00 0.00 58 1013.2
20260510051635 68 78 6.0 11.0 0.00 0.00 0.00 58 1013.2
20260510051106 68 65 5.0 12.0 0.00 0.00 0.00 58 1013.1
20260510050543 69 56 5.0 10.0 0.00 0.00 0.00 57 1013.1
20260510050020 68 72 3.0 10.0 0.00 0.00 0.00 57 1013.2
20260510045451 69 61 2.0 5.0 0.00 0.00 0.00 57 1013.2
20260510045210 69 76 1.0 5.0 0.00 0.00 0.00 56 1013.1
20260510044445 69 84 1.0 3.0 0.00 0.00 0.00 56 1013.0
20260510043943 70 88 1.0 4.0 0.00 0.00 0.00 55 1013.1
20260510043418 70 67 1.0 5.0 0.00 0.00 0.00 54 1013.1
20260510042852 70 67 1.0 5.0 0.00 0.00 0.00 53 1013.2
20260510042323 71 75 1.0 4.0 0.00 0.00 0.00 53 1013.1
20260510041822 71 51 1.0 4.0 0.00 0.00 0.00 53 1013.2
20260510041256 71 52 1.0 4.0 0.00 0.00 0.00 52 1013.2
20260510040727 71 57 2.0 6.0 0.00 0.00 0.00 51 1013.3
20260510040225 72 78 3.0 10.0 0.00 0.00 0.00 51 1013.2
20260510035656 72 54 2.0 10.0 0.00 0.00 0.00 50 1013.2
20260510035156 72 350 1.0 3.0 0.00 0.00 0.00 50 1013.2
20260510034627 72 36 1.0 5.0 0.00 0.00 0.00 49 1013.1
20260510034126 71 39 2.0 5.0 0.00 0.00 0.00 49 1013.0
20260510033557 71 31 2.0 4.0 0.00 0.00 0.00 49 1012.9
20260510033327 72 61 2.0 5.0 0.00 0.00 0.00 49 1012.7
20260510032527 73 57 2.0 5.0 0.00 0.00 0.00 48 1012.5
20260510032023 74 54 1.0 9.0 0.00 0.00 0.00 46 1012.5
20260510031720 75 67 1.0 9.0 0.00 0.00 0.00 44 1012.5
20260510030931 75 122 3.0 10.0 0.00 0.00 0.00 43 1012.2
20260510030406 75 205 5.0 12.0 0.00 0.00 0.00 42 1012.3
20260510025840 75 207 3.0 12.0 0.00 0.00 0.00 43 1012.2
20260510025311 74 157 3.0 7.0 0.00 0.00 0.00 44 1012.1
20260510024807 74 187 3.0 8.0 0.00 0.00 0.00 44 1012.1
20260510024301 74 167 2.0 8.0 0.00 0.00 0.00 43 1012.0
20260510023800 74 187 1.0 6.0 0.00 0.00 0.00 44 1012.1
20260510023456 74 144 1.0 4.0 0.00 0.00 0.00 44 1012.1
20260510022705 74 190 1.0 4.0 0.00 0.00 0.00 44 1012.3
20260510022149 74 225 1.0 2.0 0.00 0.00 0.00 45 1012.2
20260510021651 75 136 1.0 2.0 0.00 0.00 0.00 44 1012.1
20260510021147 75 32 1.0 8.0 0.00 0.00 0.00 43 1012.2
20260510020650 76 261 3.0 8.0 0.00 0.00 0.00 42 1012.2
20260510020123 76 222 3.0 7.0 0.00 0.00 0.00 41 1012.1
20260510015622 75 198 2.0 7.0 0.00 0.00 0.00 41 1012.0
20260510015315 75 206 1.0 4.0 0.00 0.00 0.00 43 1011.8
20260510014552 75 200 2.0 4.0 0.00 0.00 0.00 43 1011.7
20260510014023 76 229 1.0 4.0 0.00 0.00 0.00 42 1011.5
20260510013523 76 218 1.0 4.0 0.00 0.00 0.00 41 1011.3
20260510013221 76 216 1.0 4.0 0.00 0.00 0.00 41 1011.2
20260510012501 77 212 1.0 3.0 0.00 0.00 0.00 41 1011.0
20260510011931 77 198 2.0 7.0 0.00 0.00 0.00 40 1010.8
20260510011430 77 161 3.0 9.0 0.00 0.00 0.00 39 1010.6
20260510010920 78 183 3.0 9.0 0.00 0.00 0.00 38 1010.2
20260510010407 78 176 4.0 9.0 0.00 0.00 0.00 37 1009.9
20260510005907 78 159 4.0 12.0 0.00 0.00 0.00 37 1009.6
20260510005345 78 182 3.0 12.0 0.00 0.00 0.00 36 1009.5
20260510004846 79 172 4.0 9.0 0.00 0.00 0.00 36 1009.4
20260510004340 79 169 5.0 10.0 0.00 0.00 0.00 35 1009.3
20260510003844 80 159 5.0 10.0 0.00 0.00 0.00 35 1009.2
20260510003422 80 194 5.0 9.0 0.00 0.00 0.00 34 1008.9
20260510002307 81 148 6.0 15.0 0.00 0.00 0.00 32 1008.9
20260510001752 82 198 4.0 12.0 0.00 0.00 0.00 31 1008.8
20260510001514 82 161 5.0 11.0 0.00 0.00 0.00 30 1008.8
20260510000749 82 156 4.0 11.0 0.00 0.00 0.00 31 1008.7
20260510000248 82 134 3.0 11.0 0.00 0.00 0.00 31 1008.8
20260509235747 82 171 4.0 11.0 0.00 0.00 0.00 31 1008.9
20260509235238 82 118 5.0 12.0 0.00 0.00 0.00 30 1009.0
20260509234738 82 201 6.0 12.0 0.00 0.00 0.00 31 1008.9
20260509234434 83 155 5.0 11.0 0.00 0.00 0.00 30 1008.9
20260509233653 83 221 6.0 11.0 0.00 0.00 0.00 31 1009.0
20260509233416 83 147 6.0 11.0 0.00 0.00 0.00 30 1009.0
20260509233134 83 121 6.0 12.0 0.00 0.00 0.00 30 1009.1
20260509232129 83 159 6.0 12.0 0.00 0.00 0.00 29 1009.1
20260509231620 83 138 6.0 12.0 0.00 0.00 0.00 29 1009.1
20260509231120 83 190 6.0 12.0 0.00 0.00 0.00 30 1009.1
20260509230623 83 202 5.0 12.0 0.00 0.00 0.00 30 1009.0
20260509230115 84 159 5.0 10.0 0.00 0.00 0.00 29 1009.0
20260509225612 84 200 4.0 10.0 0.00 0.00 0.00 28 1009.0
20260509225107 84 147 3.0 7.0 0.00 0.00 0.00 28 1009.0
20260509224602 84 158 3.0 9.0 0.00 0.00 0.00 30 1008.9
20260509224054 84 175 4.0 9.0 0.00 0.00 0.00 28 1008.9
20260509223524 85 154 3.0 8.0 0.00 0.00 0.00 27 1008.8
20260509223024 85 126 2.0 5.0 0.00 0.00 0.00 30 1008.8
20260509222458 84 171 3.0 9.0 0.00 0.00 0.00 25 1008.8
20260509221952 85 190 3.0 9.0 0.00 0.00 0.00 27 1008.8
20260509221448 85 159 3.0 10.0 0.00 0.00 0.00 26 1008.7
20260509220922 85 277 4.0 10.0 0.00 0.00 0.00 26 1008.7
20260509220355 85 215 4.0 9.0 0.00 0.00 0.00 26 1008.7
20260509215852 85 207 5.0 9.0 0.00 0.00 0.00 26 1008.6
20260509215611 84 238 6.0 14.0 0.00 0.00 0.00 26 1008.7
20260509215258 85 254 4.0 14.0 0.00 0.00 0.00 27 1008.6
20260509214321 85 176 1.0 11.0 0.00 0.00 0.00 26 1008.6
20260509213808 85 157 2.0 8.0 0.00 0.00 0.00 25 1008.7
20260509213308 84 117 4.0 8.0 0.00 0.00 0.00 25 1008.7
20260509212741 84 121 3.0 10.0 0.00 0.00 0.00 27 1008.9
20260509212212 85 148 3.0 10.0 0.00 0.00 0.00 26 1008.9
20260509211707 84 244 4.0 11.0 0.00 0.00 0.00 25 1009.0
20260509211209 85 203 2.0 11.0 0.00 0.00 0.00 26 1009.1
20260509210657 85 152 1.0 5.0 0.00 0.00 0.00 28 1009.0
20260509210159 84 248 3.0 11.0 0.00 0.00 0.00 26 1009.1
20260509205631 84 148 3.0 11.0 0.00 0.00 0.00 26 1009.3
20260509205331 85 88 1.0 7.0 0.00 0.00 0.00 25 1009.3
20260509204541 84 57 1.0 8.0 0.00 0.00 0.00 26 1009.4
20260509204009 84 128 3.0 8.0 0.00 0.00 0.00 26 1009.6
20260509203659 84 138 3.0 8.0 0.00 0.00 0.00 26 1009.5
20260509202940 83 228 4.0 9.0 0.00 0.00 0.00 25 1009.6
20260509202702 83 231 3.0 9.0 0.00 0.00 0.00 27 1009.7
20260509201910 83 226 1.0 7.0 0.00 0.00 0.00 27 1009.9
20260509201408 83 165 2.0 11.0 0.00 0.00 0.00 27 1009.9
20260509200843 83 236 4.0 11.0 0.00 0.00 0.00 27 1010.0
20260509200317 84 190 5.0 15.0 0.00 0.00 0.00 27 1010.1
20260509195748 84 185 6.0 15.0 0.00 0.00 0.00 26 1010.2
20260509195245 83 149 5.0 12.0 0.00 0.00 0.00 27 1010.1
20260509194940 83 216 4.0 12.0 0.00 0.00 0.00 26 1010.1
20260509194154 84 170 3.0 9.0 0.00 0.00 0.00 27 1010.3
20260509193653 83 216 3.0 9.0 0.00 0.00 0.00 25 1010.3
20260509193127 82 162 4.0 9.0 0.00 0.00 0.00 26 1010.4
20260509192621 82 188 6.0 11.0 0.00 0.00 0.00 27 1010.5
20260509192346 82 236 7.0 11.0 0.00 0.00 0.00 26 1010.5
20260509191818 82 234 6.0 12.0 0.00 0.00 0.00 28 1010.6
20260509191026 83 199 6.0 15.0 0.00 0.00 0.00 31 1010.5
20260509190525 83 232 6.0 15.0 0.00 0.00 0.00 30 1010.4
20260509185956 83 234 6.0 15.0 0.00 0.00 0.00 32 1010.5
20260509185455 82 200 7.0 12.0 0.00 0.00 0.00 31 1010.6
20260509184950 82 257 7.0 17.0 0.00 0.00 0.00 29 1010.7
20260509184449 82 181 9.0 15.0 0.00 0.00 0.00 32 1010.8
20260509183920 82 221 9.0 19.0 0.00 0.00 0.00 30 1010.8
20260509183638 82 188 9.0 16.0 0.00 0.00 0.00 32 1010.8
20260509182849 82 231 8.0 16.0 0.00 0.00 0.00 31 1010.8
20260509182346 82 171 7.0 12.0 0.00 0.00 0.00 31 1010.7
20260509182105 82 220 7.0 12.0 0.00 0.00 0.00 30 1010.9
20260509181342 82 216 6.0 13.0 0.00 0.00 0.00 29 1011.0
20260509180816 82 241 5.0 14.0 0.00 0.00 0.00 31 1011.0
20260509180315 82 209 6.0 14.0 0.00 0.00 0.00 29 1011.1
20260509175810 81 273 8.0 14.0 0.00 0.00 0.00 29 1011.2
20260509175307 81 279 9.0 14.0 0.00 0.00 0.00 29 1011.3
20260509174741 81 260 7.0 14.0 0.00 0.00 0.00 31 1011.3
20260509174502 81 248 6.0 14.0 0.00 0.00 0.00 33 1011.3
20260509173736 81 250 7.0 12.0 0.00 0.00 0.00 33 1011.4
20260509173235 81 194 7.0 12.0 0.00 0.00 0.00 31 1011.4
20260509172711 80 244 6.0 11.0 0.00 0.00 0.00 32 1011.5
20260509172153 80 281 5.0 10.0 0.00 0.00 0.00 35 1011.5
20260509171651 80 236 7.0 14.0 0.00 0.00 0.00 36 1011.6
20260509171152 79 240 9.0 14.0 0.00 0.00 0.00 36 1011.6
20260509170653 79 235 9.0 16.0 0.00 0.00 0.00 36 1011.6
20260509170124 79 238 10.0 15.0 0.00 0.00 0.00 35 1011.7
20260509165622 78 252 8.0 14.0 0.00 0.00 0.00 35 1011.7
20260509165123 78 249 6.0 13.0 0.00 0.00 0.00 39 1011.7
20260509164604 78 257 6.0 13.0 0.00 0.00 0.00 38 1011.7
20260509164103 78 270 8.0 16.0 0.00 0.00 0.00 37 1011.7
20260509163606 78 244 7.0 16.0 0.00 0.00 0.00 38 1011.7
20260509163047 78 269 6.0 14.0 0.00 0.00 0.00 39 1011.8
20260509162547 78 235 5.0 14.0 0.00 0.00 0.00 39 1011.8
20260509162026 77 235 5.0 11.0 0.00 0.00 0.00 42 1011.8
20260509161526 77 234 7.0 12.0 0.00 0.00 0.00 42 1011.8
20260509160959 77 251 8.0 14.0 0.00 0.00 0.00 39 1011.7
20260509160453 77 242 8.0 15.0 0.00 0.00 0.00 40 1011.7
20260509155956 76 235 9.0 15.0 0.00 0.00 0.00 41 1011.7
20260509155434 76 225 10.0 15.0 0.00 0.00 0.00 40 1011.7
20260509154937 76 255 9.0 15.0 0.00 0.00 0.00 40 1011.7
20260509154415 76 248 8.0 13.0 0.00 0.00 0.00 42 1011.6
20260509153915 75 267 7.0 14.0 0.00 0.00 0.00 42 1011.7
20260509153355 75 230 7.0 14.0 0.00 0.00 0.00 45 1011.7
20260509152829 74 240 7.0 12.0 0.00 0.00 0.00 46 1011.7
20260509152306 74 238 7.0 13.0 0.00 0.00 0.00 47 1011.6
20260509151737 73 245 5.0 13.0 0.00 0.00 0.00 47 1011.6
20260509151240 73 232 4.0 10.0 0.00 0.00 0.00 53 1011.6
20260509150711 72 230 6.0 11.0 0.00 0.00 0.00 52 1011.7
20260509150153 72 228 6.0 11.0 0.00 0.00 0.00 54 1011.7
20260509145847 71 219 5.0 9.0 0.00 0.00 0.00 54 1011.5
20260509145129 70 251 5.0 11.0 0.00 0.00 0.00 58 1011.6
20260509144600 70 243 5.0 11.0 0.00 0.00 0.00 59 1011.6
20260509144056 69 231 5.0 11.0 0.00 0.00 0.00 60 1011.6
20260509143529 69 215 4.0 9.0 0.00 0.00 0.00 63 1011.6
20260509143229 68 226 3.0 7.0 0.00 0.00 0.00 66 1011.5
20260509142654 67 244 2.0 6.0 0.00 0.00 0.00 69 1011.5
20260509141933 66 236 2.0 5.0 0.00 0.00 0.00 69 1011.5
20260509141429 65 242 2.0 4.0 0.00 0.00 0.00 71 1011.5
20260509140927 65 230 2.0 5.0 0.00 0.00 0.00 72 1011.6
20260509140426 64 217 1.0 5.0 0.00 0.00 0.00 73 1011.6
20260509135900 63 239 1.0 4.0 0.00 0.00 0.00 74 1011.5
20260509135331 62 223 1.0 6.0 0.00 0.00 0.00 77 1011.5
20260509135052 61 240 1.0 6.0 0.00 0.00 0.00 77 1011.5
20260509134327 60 209 1.0 3.0 0.00 0.00 0.00 79 1011.6
20260509133759 59 220 2.0 4.0 0.00 0.00 0.00 80 1011.7
20260509133258 59 236 1.0 4.0 0.00 0.00 0.00 81 1011.6
20260509132729 58 255 1.0 4.0 0.00 0.00 0.00 81 1011.7